,,Stat6,,Stat2,,Stat8,,Stat9,,Stat10,,Wind1,,Wind1,
time,status,PA1M_AVG,status,PR1M_SUM,status,RH1M_AVG,status,SR1M_AVG,status,TA1M_AVG,status,W1dAve1m,status,W1sAve1m,
2006-04-07, 00:00:00,VALID,918.1,VALID,0,VALID,99.3924,VALID,-0.101885,VALID,20.1932,VALID,64,VALID,0.428977,
2006-04-07, 00:01:00,VALID,918.081,VALID,0,VALID,99.4903,VALID,-0.152827,VALID,18.8451,VALID,64,VALID,0.514717,
2006-04-07, 00:02:00,VALID,918.06,VALID,0,VALID,99.5616,VALID,-0.118866,VALID,20.3999,VALID,64,VALID,0.325694,
2006-04-07, 00:03:00,VALID,918.056,VALID,0,VALID,99.6442,VALID,-0.101885,VALID,20.2324,VALID,64,VALID,0.446039,
2006-04-07, 00:04:00,VALID,918.044,VALID,0,VALID,99.6862,VALID,-0.101885,VALID,20.0254,VALID,64,VALID,0.197049,
2006-04-07, 00:05:00,VALID,918.038,VALID,0,VALID,99.7027,VALID,-0.101885,VALID,20.3196,VALID,64,VALID,0.306021,
2006-04-07, 00:06:00,VALID,918.035,VALID,0,VALID,99.6277,VALID,-0.135847,VALID,20.2457,VALID,64,VALID,0.255632,
2006-04-07, 00:07:00,VALID,918.025,VALID,0,VALID,99.5107,VALID,-0.101885,VALID,20.3313,VALID,64,VALID,0.184837,
2006-04-07, 00:08:00,VALID,918.02,VALID,0,VALID,99.3556,VALID,-0.0169808,VALID,20.0052,VALID,64,VALID,0.331836,
2006-04-07, 00:09:00,VALID,918.023,VALID,0,VALID,99.292,VALID,-0.0169808,VALID,20.8623,VALID,64,VALID,0.328869,
2006-04-07, 00:10:00,VALID,918.029,VALID,0,VALID,99.2615,VALID,-0.101885,VALID,19.9547,VALID,64,VALID,0.22311,
2006-04-07, 00:11:00,VALID,918.046,VALID,0,VALID,99.0834,VALID,-0.101885,VALID,19.9838,VALID,64,VALID,0,
2006-04-07, 00:12:00,VALID,918.056,VALID,0,VALID,98.9703,VALID,-0.101885,VALID,21.1946,VALID,64,VALID,0,
2006-04-07, 00:13:00,VALID,918.074,VALID,0,VALID,98.9957,VALID,-0.418237,VALID,19.4853,VALID,64,VALID,0,
2006-04-07, 00:14:00,VALID,918.074,VALID,0,VALID,99.1877,VALID,-0.135847,VALID,19.6485,VALID,64,VALID,0.34013,
2006-04-07, 00:15:00,VALID,918.076,VALID,0,VALID,99.4509,VALID,-0.101885,VALID,20.9771,VALID,71,VALID,0.62718,
2006-04-07, 00:16:00,VALID,918.065,VALID,0,VALID,99.7154,VALID,-0.152827,VALID,20.592,VALID,120,VALID,0.648438,
2006-04-07, 00:17:00,VALID,918.05,VALID,0,VALID,99.8082,VALID,-0.118866,VALID,21.0974,VALID,120,VALID,0.371289,
2006-04-07, 00:18:00,VALID,918.019,VALID,0,VALID,99.8985,VALID,-0.152827,VALID,19.257,VALID,120,VALID,0.283736,
2006-04-07, 00:19:00,VALID,917.993,VALID,0,VALID,99.9832,VALID,-0.101885,VALID,20.7159,VALID,120,VALID,0.00852273,
2006-04-07, 00:20:00,VALID,917.971,VALID,0,VALID,99.9087,VALID,-0.186789,VALID,21.2063,VALID,120,VALID,0.000868056,
2006-04-07, 00:21:00,VALID,917.962,VALID,0,VALID,99.6493,VALID,-0.152827,VALID,20.8864,VALID,120,VALID,0.0178571,
2006-04-07, 00:22:00,VALID,917.957,VALID,0,VALID,99.6925,VALID,-0.135847,VALID,20.309,VALID,120,VALID,0.315589,
2006-04-07, 00:23:00,VALID,917.966,VALID,0,VALID,99.8591,VALID,-0.101885,VALID,20.9604,VALID,186,VALID,0.389946,
2006-04-07, 00:24:00,VALID,917.988,VALID,0,VALID,99.765,VALID,-0.118866,VALID,20.0997,VALID,240,VALID,0.102628,
2006-04-07, 00:25:00,VALID,918.028,VALID,0,VALID,99.6785,VALID,-0.101885,VALID,20.951,VALID,240,VALID,0.0453125,
2006-04-07, 00:26:00,VALID,918.065,VALID,0,VALID,99.6137,VALID,-0.0339617,VALID,21.0637,VALID,240,VALID,0.211719,
2006-04-07, 00:27:00,VALID,918.091,VALID,0,VALID,99.6315,VALID,-0.135847,VALID,19.649,VALID,240,VALID,0.0120046,
2006-04-07, 00:28:00,VALID,918.126,VALID,0,VALID,99.5781,VALID,-0.101885,VALID,20.426,VALID,240,VALID,0.0930233,
2006-04-07, 00:29:00,VALID,918.135,VALID,0,VALID,99.5069,VALID,-0.118866,VALID,21.0175,VALID,240,VALID,0.0374273,
2006-04-07, 00:30:00,VALID,918.144,VALID,0,VALID,99.5018,VALID,-0.101885,VALID,20.0017,VALID,240,VALID,0,
2006-04-07, 00:31:00,VALID,918.141,VALID,0,VALID,99.2793,VALID,-0.118866,VALID,20.2686,VALID,240,VALID,0,
2006-04-07, 00:32:00,VALID,918.136,VALID,0,VALID,98.791,VALID,-0.101885,VALID,20.9427,VALID,240,VALID,0,
2006-04-07, 00:33:00,VALID,918.141,VALID,0,VALID,98.6892,VALID,-0.101885,VALID,19.4195,VALID,240,VALID,0,
2006-04-07, 00:34:00,VALID,918.144,VALID,0,VALID,98.604,VALID,-0.118866,VALID,20.8254,VALID,240,VALID,0,
2006-04-07, 00:35:00,VALID,918.146,VALID,0,VALID,98.7261,VALID,-0.118866,VALID,20.5854,VALID,240,VALID,0,
2006-04-07, 00:36:00,VALID,918.163,VALID,0,VALID,98.899,VALID,-0.101885,VALID,20.32,VALID,240,VALID,0,
2006-04-07, 00:37:00,VALID,918.176,VALID,0,VALID,98.9842,VALID,-0.118866,VALID,20.7125,VALID,240,VALID,0,
2006-04-07, 00:38:00,VALID,918.188,VALID,0,VALID,99.0834,VALID,-0.118866,VALID,19.398,VALID,240,VALID,0.108487,
2006-04-07, 00:39:00,VALID,918.187,VALID,0,VALID,98.8698,VALID,-0.118866,VALID,20.4368,VALID,240,VALID,0.00744048,
2006-04-07, 00:40:00,VALID,918.175,VALID,0,VALID,98.8291,VALID,-0.118866,VALID,20.0617,VALID,240,VALID,0,
2006-04-07, 00:41:00,VALID,918.156,VALID,0,VALID,99.0109,VALID,-0.118866,VALID,19.9993,VALID,240,VALID,0,
2006-04-07, 00:42:00,VALID,918.136,VALID,0,VALID,98.9334,VALID,-0.135847,VALID,20.6395,VALID,240,VALID,0,
2006-04-07, 00:43:00,VALID,918.112,VALID,0,VALID,98.7871,VALID,-0.118866,VALID,20.9543,VALID,240,VALID,0.11543,
2006-04-07, 00:44:00,VALID,918.086,VALID,0,VALID,98.8088,VALID,-0.0679233,VALID,20.4927,VALID,240,VALID,0.134722,
2006-04-07, 00:45:00,VALID,918.045,VALID,0,VALID,98.8062,VALID,-0.101885,VALID,20.2351,VALID,240,VALID,0.0914931,
2006-04-07, 00:46:00,VALID,918.027,VALID,0,VALID,98.8291,VALID,-0.101885,VALID,20.6906,VALID,234,VALID,0.391319,
2006-04-07, 00:47:00,VALID,918.012,VALID,0,VALID,98.9334,VALID,-0.0849042,VALID,20.4567,VALID,155,VALID,0.673735,
2006-04-07, 00:48:00,VALID,917.986,VALID,0,VALID,98.9436,VALID,-0.101885,VALID,19.7978,VALID,166,VALID,0.914444,
2006-04-07, 00:49:00,VALID,917.957,VALID,0,VALID,98.9499,VALID,-0.0849042,VALID,21.104,VALID,169,VALID,0.998857,
2006-04-07, 00:50:00,VALID,917.934,VALID,0,VALID,98.997,VALID,-0.101885,VALID,19.6221,VALID,184,VALID,0.776486,
2006-04-07, 00:51:00,VALID,917.92,VALID,0,VALID,99.1216,VALID,-0.0849042,VALID,19.9798,VALID,189,VALID,0.524503,
2006-04-07, 00:52:00,VALID,917.894,VALID,0,VALID,99.278,VALID,-0.101885,VALID,20.5274,VALID,191,VALID,0.641513,
2006-04-07, 00:53:00,VALID,917.885,VALID,0,VALID,99.3962,VALID,-0.101885,VALID,20.5,VALID,197,VALID,0.525073,
2006-04-07, 00:54:00,VALID,917.868,VALID,0,VALID,99.5336,VALID,-0.101885,VALID,19.8024,VALID,199,VALID,0.676897,
2006-04-07, 00:55:00,VALID,917.866,VALID,0,VALID,99.7141,VALID,-0.101885,VALID,19.9211,VALID,205,VALID,0.47237,
2006-04-07, 00:56:00,VALID,917.873,VALID,0,VALID,99.8375,VALID,-0.101885,VALID,20.6865,VALID,210,VALID,0.368862,
2006-04-07, 00:57:00,VALID,917.871,VALID,0,VALID,99.9252,VALID,-0.101885,VALID,19.981,VALID,211,VALID,0.0710227,
2006-04-07, 00:58:00,VALID,917.867,VALID,0,VALID,99.9112,VALID,-0.101885,VALID,20.5855,VALID,211,VALID,0.0186738,
2006-04-07, 00:59:00,VALID,917.869,VALID,0,VALID,99.9278,VALID,-0.101885,VALID,21.769,VALID,211,VALID,0.0118096,
2006-04-07, 01:00:00,VALID,917.875,VALID,0,VALID,99.9672,VALID,-0.101885,VALID,21.3477,VALID,211,VALID,0,
2006-04-07, 01:01:00,VALID,917.852,VALID,0,VALID,99.8629,VALID,-0.101885,VALID,20.7859,VALID,274,VALID,0.491097,
2006-04-07, 01:02:00,VALID,917.835,VALID,0,VALID,99.7497,VALID,-0.118866,VALID,20.7067,VALID,347,VALID,0.591797,
2006-04-07, 01:03:00,VALID,917.8,VALID,0,VALID,99.5997,VALID,-0.118866,VALID,21.394,VALID,347,VALID,0.313565,
2006-04-07, 01:04:00,VALID,917.785,VALID,0,VALID,99.3441,VALID,-0.101885,VALID,20.8448,VALID,16,VALID,0.644077,
2006-04-07, 01:05:00,VALID,917.764,VALID,0,VALID,99.1139,VALID,-0.118866,VALID,20.8339,VALID,56,VALID,0.66276,
2006-04-07, 01:06:00,VALID,917.739,VALID,0,VALID,99.1674,VALID,-0.118866,VALID,20.4253,VALID,61,VALID,0.77782,
2006-04-07, 01:07:00,VALID,917.713,VALID,0,VALID,99.3403,VALID,-0.101885,VALID,19.9082,VALID,62,VALID,0.775195,
2006-04-07, 01:08:00,VALID,917.695,VALID,0,VALID,99.4573,VALID,-0.0169808,VALID,21.2489,VALID,62,VALID,0.789063,
2006-04-07, 01:09:00,VALID,917.672,VALID,0,VALID,99.5883,VALID,-0.135847,VALID,22.0508,VALID,62,VALID,0.710175,
2006-04-07, 01:10:00,VALID,917.614,VALID,0,VALID,99.7663,VALID,-0.101885,VALID,20.6861,VALID,57,VALID,1.25836,
2006-04-07, 01:11:00,VALID,917.592,VALID,0,VALID,99.8782,VALID,-0.101885,VALID,19.9806,VALID,57,VALID,1.15856,
2006-04-07, 01:12:00,VALID,917.545,VALID,0,VALID,99.821,VALID,-0.118866,VALID,19.868,VALID,66,VALID,0.876359,
2006-04-07, 01:13:00,VALID,917.516,VALID,0,VALID,99.676,VALID,-0.20377,VALID,20.71,VALID,83,VALID,0.606707,
2006-04-07, 01:14:00,VALID,917.466,VALID,0,VALID,99.8095,VALID,-0.152827,VALID,20.3869,VALID,91,VALID,0.420015,
2006-04-07, 01:15:00,VALID,917.427,VALID,0,VALID,99.9529,VALID,-0.101885,VALID,20.7041,VALID,84,VALID,0.549716,
2006-04-07, 01:16:00,VALID,917.407,VALID,0,VALID,100,VALID,-0.101885,VALID,18.7573,VALID,84,VALID,0.346181,
2006-04-07, 01:17:00,VALID,917.357,VALID,0,VALID,100,VALID,-0.101885,VALID,19.8153,VALID,84,VALID,0.344131,
2006-04-07, 01:18:00,VALID,917.315,VALID,0,VALID,99.9743,VALID,-0.101885,VALID,19.7554,VALID,84,VALID,0.338246,
2006-04-07, 01:19:00,VALID,917.263,VALID,0,VALID,99.8833,VALID,-0.101885,VALID,20.1966,VALID,84,VALID,0.431176,
2006-04-07, 01:20:00,VALID,917.227,VALID,0,VALID,99.7523,VALID,-0.101885,VALID,19.9362,VALID,83,VALID,0.528963,
2006-04-07, 01:21:00,VALID,917.209,VALID,0,VALID,99.6595,VALID,-0.0849042,VALID,20.351,VALID,50,VALID,0.605564,
2006-04-07, 01:22:00,VALID,917.185,VALID,0,VALID,99.5883,VALID,-0.101885,VALID,20.6516,VALID,47,VALID,0.57984,
2006-04-07, 01:23:00,VALID,917.186,VALID,0,VALID,99.5666,VALID,-0.101885,VALID,21.2284,VALID,47,VALID,0.49442,
2006-04-07, 01:24:00,VALID,917.192,VALID,0,VALID,99.5158,VALID,-0.101885,VALID,21.1678,VALID,47,VALID,0.524219,
2006-04-07, 01:25:00,VALID,917.214,VALID,0,VALID,99.4687,VALID,-0.101885,VALID,19.5806,VALID,47,VALID,0.588034,
2006-04-07, 01:26:00,VALID,917.213,VALID,0,VALID,99.5056,VALID,-0.101885,VALID,20.0776,VALID,47,VALID,0.481957,
2006-04-07, 01:27:00,VALID,917.209,VALID,0,VALID,99.6251,VALID,-0.0849042,VALID,19.2692,VALID,47,VALID,0.442336,
2006-04-07, 01:28:00,VALID,917.188,VALID,0,VALID,99.6938,VALID,-0.101885,VALID,19.9151,VALID,35,VALID,0.603087,
2006-04-07, 01:29:00,VALID,917.159,VALID,0,VALID,99.751,VALID,-0.101885,VALID,19.9781,VALID,18,VALID,0.516183,
2006-04-07, 01:30:00,VALID,917.107,VALID,0,VALID,99.7332,VALID,-0.101885,VALID,20.0997,VALID,18,VALID,0.454728,
2006-04-07, 01:31:00,VALID,917.077,VALID,0,VALID,99.7052,VALID,-0.0849042,VALID,19.5906,VALID,18,VALID,0.0528274,
2006-04-07, 01:32:00,VALID,917.035,VALID,0,VALID,99.7205,VALID,-0.101885,VALID,19.1267,VALID,18,VALID,0.198117,
2006-04-07, 01:33:00,VALID,917.013,VALID,0,VALID,99.676,VALID,-0.101885,VALID,19.7177,VALID,18,VALID,0.117378,
2006-04-07, 01:34:00,VALID,917.002,VALID,0,VALID,99.6099,VALID,-0.101885,VALID,20.4812,VALID,18,VALID,0,
2006-04-07, 01:35:00,VALID,916.975,VALID,0,VALID,99.7256,VALID,-0.101885,VALID,19.8728,VALID,18,VALID,0.0397892,
2006-04-07, 01:36:00,VALID,916.973,VALID,0,VALID,99.8553,VALID,-0.0849042,VALID,20.9988,VALID,18,VALID,0,
2006-04-07, 01:37:00,VALID,916.944,VALID,0,VALID,99.9613,VALID,-0.118866,VALID,19.0909,VALID,18,VALID,0,
2006-04-07, 01:38:00,VALID,916.954,VALID,0,VALID,100,VALID,-0.0849042,VALID,19.4561,VALID,18,VALID,0.156977,
2006-04-07, 01:39:00,VALID,916.964,VALID,0,VALID,99.9448,VALID,-0.0849042,VALID,20.632,VALID,18,VALID,0.565104,
2006-04-07, 01:40:00,VALID,916.98,VALID,0,VALID,99.6722,VALID,-0.101885,VALID,19.9487,VALID,18,VALID,0.557664,
2006-04-07, 01:41:00,VALID,916.986,VALID,0,VALID,99.6099,VALID,-0.101885,VALID,19.8608,VALID,18,VALID,0.721875,
2006-04-07, 01:42:00,VALID,916.99,VALID,0,VALID,99.7408,VALID,-0.101885,VALID,19.7419,VALID,18,VALID,0.53234,
2006-04-07, 01:43:00,VALID,916.994,VALID,0,VALID,99.9062,VALID,-0.0849042,VALID,20.0591,VALID,18,VALID,0.539063,
2006-04-07, 01:44:00,VALID,916.988,VALID,0,VALID,99.9952,VALID,-0.101885,VALID,19.9137,VALID,18,VALID,0.669513,
2006-04-07, 01:45:00,VALID,916.993,VALID,0,VALID,100,VALID,-0.101885,VALID,19.641,VALID,358,VALID,0.721608,
2006-04-07, 01:46:00,VALID,917.005,VALID,0,VALID,100,VALID,-0.101885,VALID,19.1281,VALID,344,VALID,0.754439,
2006-04-07, 01:47:00,VALID,917.033,VALID,0,VALID,100,VALID,-0.118866,VALID,20.0757,VALID,339,VALID,0.633371,
2006-04-07, 01:48:00,VALID,917.035,VALID,0,VALID,100,VALID,-0.101885,VALID,19.6218,VALID,321,VALID,0.566406,
2006-04-07, 01:49:00,VALID,917.043,VALID,0,VALID,100,VALID,-0.118866,VALID,19.4619,VALID,332,VALID,0.563834,
2006-04-07, 01:50:00,VALID,917.039,VALID,0,VALID,100,VALID,-0.118866,VALID,19.5684,VALID,348,VALID,0.448583,
2006-04-07, 01:51:00,VALID,917.034,VALID,0,VALID,100,VALID,-0.118866,VALID,20.15,VALID,348,VALID,0.476953,
2006-04-07, 01:52:00,VALID,917.019,VALID,0,VALID,100,VALID,-0.0849042,VALID,20.5088,VALID,5,VALID,0.578125,
2006-04-07, 01:53:00,VALID,917.034,VALID,0,VALID,100,VALID,-0.101885,VALID,20.7095,VALID,16,VALID,0.848366,
2006-04-07, 01:54:00,VALID,917.016,VALID,0,VALID,100,VALID,-0.101885,VALID,19.216,VALID,5,VALID,0.772693,
2006-04-07, 01:55:00,VALID,916.999,VALID,0,VALID,100,VALID,-0.0849042,VALID,20.6213,VALID,323,VALID,0.660511,
2006-04-07, 01:56:00,VALID,916.981,VALID,0,VALID,100,VALID,-0.101885,VALID,20.3204,VALID,320,VALID,0.0693109,
2006-04-07, 01:57:00,VALID,916.958,VALID,0,VALID,100,VALID,-0.101885,VALID,18.9589,VALID,353,VALID,0.338415,
2006-04-07, 01:58:00,VALID,916.911,VALID,0,VALID,100,VALID,-0.101885,VALID,19.8523,VALID,14,VALID,0.847565,
2006-04-07, 01:59:00,VALID,916.86,VALID,0,VALID,100,VALID,-0.118866,VALID,20.7095,VALID,21,VALID,1.01309,
2006-04-07, 02:00:00,VALID,916.813,VALID,0,VALID,100,VALID,-0.101885,VALID,19.9699,VALID,23,VALID,1.04774,
2006-04-07, 02:01:00,VALID,916.765,VALID,0,VALID,100,VALID,-0.101885,VALID,19.8137,VALID,39,VALID,1.07813,
2006-04-07, 02:02:00,VALID,916.743,VALID,0,VALID,100,VALID,-0.101885,VALID,20.2423,VALID,34,VALID,1.13809,
2006-04-07, 02:03:00,VALID,916.717,VALID,0,VALID,100,VALID,-0.0679233,VALID,19.6854,VALID,31,VALID,0.827934,
2006-04-07, 02:04:00,VALID,916.698,VALID,0,VALID,100,VALID,-0.0849042,VALID,20.7451,VALID,24,VALID,0.566311,
2006-04-07, 02:05:00,VALID,916.691,VALID,0,VALID,100,VALID,-0.186789,VALID,20.0745,VALID,23,VALID,0.297433,
2006-04-07, 02:06:00,VALID,916.684,VALID,0,VALID,100,VALID,-0.169808,VALID,20.4346,VALID,23,VALID,0.138529,
2006-04-07, 02:07:00,VALID,916.679,VALID,0,VALID,100,VALID,-0.118866,VALID,20.9451,VALID,23,VALID,0,
2006-04-07, 02:08:00,VALID,916.666,VALID,0,VALID,100,VALID,-0.169808,VALID,19.7615,VALID,23,VALID,0,
2006-04-07, 02:09:00,VALID,916.663,VALID,0,VALID,100,VALID,-0.152827,VALID,19.6445,VALID,23,VALID,0,
2006-04-07, 02:10:00,VALID,916.651,VALID,0,VALID,100,VALID,-0.20377,VALID,21.89,VALID,23,VALID,0,
2006-04-07, 02:11:00,VALID,916.642,VALID,0,VALID,100,VALID,-0.169808,VALID,18.4731,VALID,23,VALID,0,
2006-04-07, 02:12:00,VALID,916.642,VALID,0,VALID,100,VALID,-0.186789,VALID,20.4385,VALID,23,VALID,0.15554,
2006-04-07, 02:13:00,VALID,916.63,VALID,0,VALID,100,VALID,-0.101885,VALID,19.9498,VALID,23,VALID,0.301781,
2006-04-07, 02:14:00,VALID,916.615,VALID,0,VALID,100,VALID,-0.101885,VALID,19.921,VALID,23,VALID,0.293786,
2006-04-07, 02:15:00,VALID,916.584,VALID,0,VALID,100,VALID,-0.101885,VALID,19.8075,VALID,23,VALID,0.180367,
2006-04-07, 02:16:00,VALID,916.571,VALID,0,VALID,100,VALID,-0.118866,VALID,20.2585,VALID,23,VALID,0.302591,
2006-04-07, 02:17:00,VALID,916.562,VALID,0,VALID,100,VALID,-0.186789,VALID,19.5586,VALID,23,VALID,0.255859,
2006-04-07, 02:18:00,VALID,916.569,VALID,0,VALID,100,VALID,-0.20377,VALID,19.9205,VALID,23,VALID,0.362424,
2006-04-07, 02:19:00,VALID,916.586,VALID,0,VALID,100,VALID,-0.20377,VALID,20.2144,VALID,23,VALID,0.417259,
2006-04-07, 02:20:00,VALID,916.583,VALID,0,VALID,100,VALID,-0.169808,VALID,20.1982,VALID,23,VALID,0.416667,
2006-04-07, 02:21:00,VALID,916.596,VALID,0,VALID,100,VALID,-0.118866,VALID,19.3309,VALID,23,VALID,0.192454,
2006-04-07, 02:22:00,VALID,916.609,VALID,0,VALID,100,VALID,-0.169808,VALID,19.4636,VALID,23,VALID,0.150391,
2006-04-07, 02:23:00,VALID,916.611,VALID,0,VALID,100,VALID,-0.20377,VALID,18.9022,VALID,23,VALID,0.0332589,
2006-04-07, 02:24:00,VALID,916.621,VALID,0,VALID,100,VALID,-0.186789,VALID,19.5795,VALID,23,VALID,0.418857,
2006-04-07, 02:25:00,VALID,916.608,VALID,0,VALID,100,VALID,-0.186789,VALID,20.1906,VALID,23,VALID,0.35625,
2006-04-07, 02:26:00,VALID,916.613,VALID,0,VALID,100,VALID,-0.20377,VALID,19.7745,VALID,23,VALID,0.0691964,
2006-04-07, 02:27:00,VALID,916.605,VALID,0,VALID,100,VALID,-0.186789,VALID,20.0382,VALID,23,VALID,0.0656622,
2006-04-07, 02:28:00,VALID,916.594,VALID,0,VALID,100,VALID,-0.186789,VALID,20.6269,VALID,23,VALID,0.148247,
2006-04-07, 02:29:00,VALID,916.575,VALID,0,VALID,100,VALID,-0.0849042,VALID,20.5039,VALID,23,VALID,0.170015,
2006-04-07, 02:30:00,VALID,916.587,VALID,0,VALID,100,VALID,-0.118866,VALID,20.7022,VALID,35,VALID,0.388808,
2006-04-07, 02:31:00,VALID,916.585,VALID,0,VALID,100,VALID,-0.186789,VALID,20.0576,VALID,72,VALID,0.0948401,
2006-04-07, 02:32:00,VALID,916.607,VALID,0,VALID,100,VALID,-0.118866,VALID,18.9009,VALID,72,VALID,0.0350694,
2006-04-07, 02:33:00,VALID,916.633,VALID,0,VALID,100,VALID,-0.186789,VALID,19.1308,VALID,72,VALID,0.0188953,
2006-04-07, 02:34:00,VALID,916.657,VALID,0,VALID,100,VALID,-0.186789,VALID,18.8537,VALID,72,VALID,0.187674,
2006-04-07, 02:35:00,VALID,916.662,VALID,0,VALID,100,VALID,-0.101885,VALID,19.6334,VALID,72,VALID,0.191493,
2006-04-07, 02:36:00,VALID,916.674,VALID,0,VALID,100,VALID,-0.101885,VALID,20.7762,VALID,72,VALID,0.0394176,
2006-04-07, 02:37:00,VALID,916.673,VALID,0,VALID,100,VALID,-0.101885,VALID,20.4553,VALID,62,VALID,0.359375,
2006-04-07, 02:38:00,VALID,916.634,VALID,0,VALID,100,VALID,-0.101885,VALID,21.3337,VALID,59,VALID,0.512251,
2006-04-07, 02:39:00,VALID,916.613,VALID,0,VALID,100,VALID,-0.101885,VALID,19.2949,VALID,58,VALID,0.414595,
2006-04-07, 02:40:00,VALID,916.578,VALID,0,VALID,100,VALID,-0.101885,VALID,19.9481,VALID,50,VALID,0.469477,
2006-04-07, 02:41:00,VALID,916.542,VALID,0,VALID,100,VALID,-0.0849042,VALID,20.8784,VALID,50,VALID,0.612909,
2006-04-07, 02:42:00,VALID,916.525,VALID,0,VALID,100,VALID,-0.101885,VALID,21.4098,VALID,50,VALID,0.612537,
2006-04-07, 02:43:00,VALID,916.504,VALID,0,VALID,100,VALID,-0.101885,VALID,20.4619,VALID,50,VALID,0.481707,
2006-04-07, 02:44:00,VALID,916.5,VALID,0,VALID,100,VALID,-0.101885,VALID,19.5912,VALID,42,VALID,0.646949,
2006-04-07, 02:45:00,VALID,916.493,VALID,0,VALID,100,VALID,-0.0849042,VALID,20.6055,VALID,37,VALID,0.328887,
2006-04-07, 02:46:00,VALID,916.499,VALID,0,VALID,100,VALID,-0.20377,VALID,20.4052,VALID,37,VALID,0.115916,
2006-04-07, 02:47:00,VALID,916.494,VALID,0,VALID,99.9977,VALID,-0.186789,VALID,20.2438,VALID,37,VALID,0.00476372,
2006-04-07, 02:48:00,VALID,916.508,VALID,0,VALID,100,VALID,-0.0849042,VALID,19.934,VALID,37,VALID,0.244549,
2006-04-07, 02:49:00,VALID,916.505,VALID,0,VALID,100,VALID,-0.101885,VALID,20.1005,VALID,37,VALID,0.232777,
2006-04-07, 02:50:00,VALID,916.53,VALID,0,VALID,99.9827,VALID,-0.101885,VALID,20.1571,VALID,37,VALID,0.274891,
2006-04-07, 02:51:00,VALID,916.551,VALID,0,VALID,99.9189,VALID,-0.135847,VALID,20.0563,VALID,32,VALID,0.592842,
2006-04-07, 02:52:00,VALID,916.543,VALID,0,VALID,99.9036,VALID,-0.135847,VALID,20.5754,VALID,17,VALID,0.710175,
2006-04-07, 02:53:00,VALID,916.559,VALID,0,VALID,99.8909,VALID,-0.101885,VALID,19.5325,VALID,14,VALID,0.695122,
2006-04-07, 02:54:00,VALID,916.568,VALID,0,VALID,99.8795,VALID,-0.101885,VALID,20.2151,VALID,4,VALID,0.716206,
2006-04-07, 02:55:00,VALID,916.549,VALID,0,VALID,99.8934,VALID,-0.101885,VALID,21.5852,VALID,12,VALID,0.801562,
2006-04-07, 02:56:00,VALID,916.524,VALID,0,VALID,99.7752,VALID,-0.118866,VALID,20.2635,VALID,11,VALID,0.783558,
2006-04-07, 02:57:00,VALID,916.502,VALID,0,VALID,99.7777,VALID,-0.135847,VALID,20.4711,VALID,10,VALID,0.782452,
2006-04-07, 02:58:00,VALID,916.481,VALID,0,VALID,99.737,VALID,-0.101885,VALID,20.8388,VALID,10,VALID,0.992378,
2006-04-07, 02:59:00,VALID,916.442,VALID,0,VALID,99.6607,VALID,-0.118866,VALID,19.1556,VALID,7,VALID,1.16175,
2006-04-07, 03:00:00,VALID,916.419,VALID,0,VALID,99.7014,VALID,-0.186789,VALID,20.5415,VALID,7,VALID,1.17929,
2006-04-07, 03:01:00,VALID,916.401,VALID,0,VALID,99.8438,VALID,-0.118866,VALID,20.2192,VALID,12,VALID,1.10633,
2006-04-07, 03:02:00,VALID,916.409,VALID,0,VALID,99.9718,VALID,-0.118866,VALID,19.5924,VALID,15,VALID,0.97093,
2006-04-07, 03:03:00,VALID,916.431,VALID,0,VALID,99.9842,VALID,-0.101885,VALID,19.7848,VALID,7,VALID,0.921494,
2006-04-07, 03:04:00,VALID,916.426,VALID,0,VALID,99.9919,VALID,-0.118866,VALID,20.8125,VALID,17,VALID,0.687128,
2006-04-07, 03:05:00,VALID,916.42,VALID,0,VALID,100,VALID,-0.118866,VALID,20.161,VALID,23,VALID,0.438453,
2006-04-07, 03:06:00,VALID,916.399,VALID,0,VALID,99.999,VALID,-0.101885,VALID,19.4642,VALID,16,VALID,0.486374,
2006-04-07, 03:07:00,VALID,916.402,VALID,0,VALID,100,VALID,-0.101885,VALID,20.9404,VALID,360,VALID,0.137784,
2006-04-07, 03:08:00,VALID,916.373,VALID,0,VALID,100,VALID,-0.118866,VALID,20.0085,VALID,360,VALID,0.181176,
2006-04-07, 03:09:00,VALID,916.351,VALID,0,VALID,99.9939,VALID,-0.101885,VALID,19.9429,VALID,360,VALID,0.074929,
2006-04-07, 03:10:00,VALID,916.33,VALID,0,VALID,99.9087,VALID,-0.118866,VALID,20.8939,VALID,360,VALID,0.256098,
2006-04-07, 03:11:00,VALID,916.318,VALID,0,VALID,99.8388,VALID,-0.169808,VALID,20.3377,VALID,360,VALID,0.326349,
2006-04-07, 03:12:00,VALID,916.304,VALID,0,VALID,99.7637,VALID,-0.0679233,VALID,20.1438,VALID,13,VALID,0.597124,
2006-04-07, 03:13:00,VALID,916.302,VALID,0,VALID,99.5768,VALID,-0.101885,VALID,21.0778,VALID,30,VALID,0.78457,
2006-04-07, 03:14:00,VALID,916.298,VALID,0,VALID,99.456,VALID,-0.101885,VALID,19.2081,VALID,20,VALID,0.760671,
2006-04-07, 03:15:00,VALID,916.285,VALID,0,VALID,99.3276,VALID,-0.20377,VALID,20.1966,VALID,20,VALID,0.816692,
2006-04-07, 03:16:00,VALID,916.277,VALID,0,VALID,99.2322,VALID,-0.135847,VALID,19.1378,VALID,21,VALID,0.49782,
2006-04-07, 03:17:00,VALID,916.266,VALID,0,VALID,99.1343,VALID,-0.101885,VALID,20.8695,VALID,26,VALID,0.581499,
2006-04-07, 03:18:00,VALID,916.236,VALID,0,VALID,98.9753,VALID,-0.101885,VALID,21.2725,VALID,39,VALID,0.75625,
2006-04-07, 03:19:00,VALID,916.231,VALID,0,VALID,98.8723,VALID,-0.118866,VALID,20.0449,VALID,43,VALID,0.912729,
2006-04-07, 03:20:00,VALID,916.23,VALID,0,VALID,98.8011,VALID,-0.169808,VALID,19.5865,VALID,59,VALID,0.867733,
2006-04-07, 03:21:00,VALID,916.226,VALID,0,VALID,98.6981,VALID,-0.20377,VALID,20.7236,VALID,66,VALID,0.794085,
2006-04-07, 03:22:00,VALID,916.225,VALID,0,VALID,98.7159,VALID,-0.186789,VALID,19.0166,VALID,58,VALID,0.739099,
2006-04-07, 03:23:00,VALID,916.202,VALID,0,VALID,98.7185,VALID,-0.101885,VALID,19.6512,VALID,59,VALID,0.587612,
2006-04-07, 03:24:00,VALID,916.203,VALID,0,VALID,98.8316,VALID,-0.101885,VALID,19.5783,VALID,59,VALID,0.487614,
2006-04-07, 03:25:00,VALID,916.207,VALID,0,VALID,98.7897,VALID,-0.101885,VALID,19.4525,VALID,59,VALID,0.448475,
2006-04-07, 03:26:00,VALID,916.209,VALID,0,VALID,98.7185,VALID,-0.0849042,VALID,21.3737,VALID,59,VALID,0.156631,
2006-04-07, 03:27:00,VALID,916.196,VALID,0,VALID,98.6918,VALID,-0.0849042,VALID,19.839,VALID,57,VALID,0.207122,
2006-04-07, 03:28:00,VALID,916.192,VALID,0,VALID,98.6498,VALID,-0.101885,VALID,19.8996,VALID,55,VALID,0.0701308,
2006-04-07, 03:29:00,VALID,916.176,VALID,0,VALID,98.5036,VALID,-0.118866,VALID,20.2981,VALID,55,VALID,0.188988,
2006-04-07, 03:30:00,VALID,916.157,VALID,0,VALID,98.4807,VALID,-0.186789,VALID,20.7885,VALID,51,VALID,0.567827,
2006-04-07, 03:31:00,VALID,916.136,VALID,0,VALID,98.3434,VALID,-0.118866,VALID,19.889,VALID,50,VALID,0.588423,
2006-04-07, 03:32:00,VALID,916.127,VALID,0,VALID,98.3205,VALID,-0.101885,VALID,20.1901,VALID,50,VALID,0.401933,
2006-04-07, 03:33:00,VALID,916.107,VALID,0,VALID,98.384,VALID,-0.101885,VALID,19.8443,VALID,50,VALID,0.384046,
2006-04-07, 03:34:00,VALID,916.095,VALID,0,VALID,98.2429,VALID,-0.20377,VALID,20.352,VALID,50,VALID,0.627046,
2006-04-07, 03:35:00,VALID,916.08,VALID,0,VALID,98.1717,VALID,-0.20377,VALID,20.2725,VALID,50,VALID,0.774771,